Deer Park, WA

11:57 AM PDT on July 25, 2016 (GMT -0700)
Deer Park

Weather History for KDEW - June, 2013

Change the Weather History Date:

Monday, June 10, 2013

  Actual Average Record
Temperature  
Mean Temperature 55 °F 58 °F  
Max Temperature 76 °F 71 °F 88 °F (2015)
Min Temperature 34 °F 44 °F 30 °F (1999)
Degree Days  
Heating Degree Days 10 8  
Month to date heating degree days 65 84  
Since 1 June heating degree days 65 84  
Since 1 July heating degree days 6878 7298  
Cooling Degree Days 0 0  
Month to date cooling degree days 2 0  
Year to date cooling degree days 5 3  
Since 1 June cooling degree days 2 0  
Growing Degree Days 4 (Base 50)    
Moisture  
Dew Point 36 °F    
Average Humidity 56    
Maximum Humidity 89    
Minimum Humidity 23    
Precipitation  
Precipitation 0.00 in 0.08 in 0.64 in (2006)
Month to date precipitation 0.21 0.74  
Year to date precipitation 6.58 10.48  
Sea Level Pressure  
Sea Level Pressure 29.82 in    
Wind  
Wind Speed 3 mph (South)    
Max Wind Speed 14 mph    
Max Gust Speed 16 mph    
Visibility 10 miles    
Events      
T = Trace of Precipitation, MM = Missing Value Source: NWS Daily Summary

Daily Weather History Graph

Daily Weather History Graph

Search for Another Location

Airport or City:

Trip Planner

Search our weather history database for the weather conditions in past years. The results will help you decide how hot, cold, wet, or windy it might be!

Date:

Astronomy

Jun. 10, 2013 Rise Set
Actual Time 4:50 AM PDT 8:48 PM PDT
Civil Twilight 4:09 AM PDT 9:29 PM PDT
Nautical Twilight 3:13 AM PDT 10:25 PM PDT
Astronomical Twilight 1:42 AM PDT 11:57 PM PDT
Moon 6:50 AM PDT (6/10) 10:09 PM PDT (6/10)
Length of Visible Light 17h 19m
Length of Day
15h 58m
Waxing Crescent, 4% of the Moon is Illuminated
Jun 10
Waxing Crescent
Jun 16
First Quarter
Jun 23
Full
Jun 29
Last Quarter
Jul 8
New

Hourly Weather History & Observations

Time (PDT) Temp. Windchill Dew Point Humidity Pressure Visibility Wind Dir Wind Speed Gust Speed Precip Events Conditions
12:53 AM 42.1 °F - 34.0 °F 73% 29.84 in 10.0 mi Calm Calm - N/A   Clear
1:53 AM 37.9 °F - 33.1 °F 83% 29.85 in 10.0 mi Calm Calm - N/A   Clear
2:53 AM 37.9 °F 35.5 °F 34.0 °F 86% 29.84 in 10.0 mi NW 3.5 mph - N/A   Clear
3:53 AM 36.0 °F - 32.0 °F 86% 29.85 in 10.0 mi Calm Calm - N/A   Clear
4:53 AM 36.0 °F - 32.0 °F 86% 29.85 in 10.0 mi North - - N/A   Clear
5:53 AM 41.0 °F 38.0 °F 35.1 °F 79% 29.86 in 10.0 mi ESE 4.6 mph - N/A   Clear
6:53 AM 50.0 °F - 37.0 °F 61% 29.86 in 10.0 mi North - - N/A   Clear
7:53 AM 52.0 °F - 37.9 °F 59% 29.87 in 10.0 mi SE 3.5 mph - N/A   Clear
8:53 AM 57.0 °F - 37.0 °F 47% 29.88 in 10.0 mi South 3.5 mph - N/A   Clear
9:53 AM 61.0 °F - 37.9 °F 42% 29.87 in 10.0 mi SSE 8.1 mph - N/A   Clear
10:53 AM 64.0 °F - 37.0 °F 37% 29.87 in 10.0 mi South 6.9 mph - N/A   Clear
11:53 AM 68.0 °F - 37.0 °F 32% 29.85 in 10.0 mi SW 5.8 mph - N/A   Clear
12:53 PM 71.1 °F - 37.9 °F 30% 29.83 in 10.0 mi SSW 4.6 mph - N/A   Clear
1:53 PM 73.0 °F - 37.0 °F 27% 29.82 in 10.0 mi South 3.5 mph - N/A   Clear
2:53 PM 73.0 °F - 37.0 °F 27% 29.81 in 10.0 mi SSW 5.8 mph 16.1 mph N/A   Clear
3:53 PM 73.9 °F - 35.1 °F 24% 29.79 in 10.0 mi Variable 3.5 mph - N/A   Clear
4:53 PM 73.9 °F - 36.0 °F 25% 29.78 in 10.0 mi North - - N/A   Clear
5:53 PM 73.9 °F - 34.0 °F 23% 29.76 in 10.0 mi Variable 3.5 mph - N/A   Clear
6:53 PM 73.9 °F - 34.0 °F 23% 29.74 in 10.0 mi Calm Calm - N/A   Clear
7:53 PM 71.1 °F - 37.0 °F 29% 29.74 in 10.0 mi Calm Calm - N/A   Clear
8:53 PM 57.0 °F - 43.0 °F 59% 29.75 in 10.0 mi Calm Calm - N/A   Clear
9:53 PM 50.0 °F - 41.0 °F 71% 29.77 in 10.0 mi Calm Calm - N/A   Clear
10:53 PM 50.0 °F - 39.9 °F 68% 29.78 in 10.0 mi Calm Calm - N/A   Clear
11:53 PM 45.0 °F - 39.0 °F 80% 29.78 in 10.0 mi Calm Calm - N/A   Clear